Location: Bouchavesnes-Bergen
(49.9859°N, 2.9203°E)
Time: 03:53:54
(UTC+00:00)

CZ-4B R/B - Pass Details

Date: 09 March 2021
Orbit: 388 x 455 km, 97.6° (Epoch: 11 April)

Event Time Altitude Azimuth Distance (km) Brightness Sun altitude
Rises 04:37:19 0° 152° (SSE) 2,307 5.2 -16.4°
Reaches altitude 10° 04:39:20 10° 146° (SE) 1,444 4.2 -16.1°
Maximum altitude 04:42:18 46° 72° (ENE) 546 2.3 -15.6°
Drops below altitude 10° 04:45:15 10° 358° (N) 1,438 4.1 -15.2°
Sets 04:47:15 0° 352° (N) 2,296 5.0 -14.8°
